Home   Weather   Vaasa   Past weeks

Flag for Finland Past Weather in Vaasa, Finland — Yesterday and Last 2 Weeks

Now
18 °F

Sunny.


Feels Like: 18 °F
Forecast: 32 / 37 °F
Wind: 2 mph from North

Location: Vaasa Airport

Current Time: Dec 6, 2016 at 12:26:01 pm

Latest Report: Dec 6, 2016 at 11:50 am


Visibility: 10 mi

Pressure: 30.27 "Hg

Humidity: 86%

Dew Point: 14 °F

Location of VaasaLocation

Past Weather in Vaasa — Graph

°F

Vaasa Temperature Yesterday

Maximum temperature yesterday: 45 °F (at 2:50 am)
Minimum temperature yesterday: 27 °F (at 10:20 pm)
Average temperature yesterday: 33 °F

High & Low Weather Summary for the Past Weeks

 TemperatureHumidityPressure
High45 °F (Nov 21, 2:20 pm)100% (Nov 21, 11:20 am)30.24 "Hg (Nov 21, 11:20 am)
Low7 °F (Dec 4, 4:20 am)60% (Nov 30, 4:20 pm)29.06 "Hg (Nov 26, 1:20 pm)
Average31 °F89%29.71 "Hg
* Reported Nov 21 11:20 am — Dec 6 11:20 am, Vaasa, Weather by CustomWeather, © 2016

Note: Actual official high and low records may vary slightly from our data, if they occured in-between our weather recording intervals... More about our weather records

Advertising

Vaasa Weather History for the Previous 24 Hours

Scroll right to see more
 ConditionsComfort  
Time TempWeatherWind HumidityBarometerVisibility
11:20 am
Tue, Dec 6
16 °FPassing clouds.2 mph93%30.24 "HgN/A
10:50 am16 °FPassing clouds.3 mph86%30.24 "HgN/A
10:20 am14 °FPassing clouds.3 mph92%30.24 "HgN/A
9:50 am14 °FPassing clouds.3 mph92%30.24 "HgN/A
9:20 am14 °FLight snow. Passing clouds.3 mph92%30.21 "HgN/A
8:50 am16 °FLight snow. Passing clouds.3 mph93%30.21 "HgN/A
8:20 am14 °FPassing clouds.2 mph92%30.18 "HgN/A
7:50 am16 °FLight snow. Passing clouds.2 mph93%30.18 "Hg4 mi
7:20 am16 °FLight snow. Passing clouds.No wind93%30.18 "HgN/A
6:50 am16 °FLight snow. Passing clouds.No wind93%30.15 "HgN/A
6:20 am18 °FLight snow. Passing clouds.2 mph93%30.15 "HgN/A
5:50 am18 °FLight snow. Passing clouds.2 mph93%30.15 "HgN/A
5:20 am19 °FLight snow. Passing clouds.5 mph86%30.12 "HgN/A
4:50 am19 °FLight snow. Partly cloudy.3 mph93%30.12 "Hg5 mi
4:20 am21 °FLight snow. Passing clouds.3 mph86%30.09 "HgN/A
3:50 am21 °FPassing clouds.2 mph86%30.09 "HgN/A
3:20 am21 °FLight snow. Passing clouds.5 mph86%30.07 "HgN/A
2:50 am23 °FPassing clouds.5 mph86%30.04 "HgN/A
2:20 am23 °FPassing clouds.5 mph86%30.04 "HgN/A
1:50 am25 °FPassing clouds.7 mph80%30.01 "HgN/A
1:20 am25 °FLight snow. Passing clouds.9 mph80%30.01 "HgN/A
12:50 am27 °FLight snow. Overcast.6 mph80%29.98 "HgN/A
12:20 am27 °FLight snow. Overcast.5 mph86%29.95 "HgN/A
11:50 pm
Mon, Dec 5
27 °FLight snow. Overcast.6 mph86%29.95 "HgN/A
11:20 pm27 °FLight snow. Mostly cloudy.6 mph86%29.92 "HgN/A
10:50 pm27 °FLight snow. Mostly cloudy.5 mph86%29.92 "Hg2 mi
10:20 pm27 °FLight snow. Mostly cloudy.7 mph86%29.89 "HgN/A
9:50 pm28 °FLight snow. Mostly cloudy.7 mph80%29.86 "HgN/A
9:20 pm28 °FLight snow. Overcast.9 mph80%29.86 "HgN/A
8:50 pm28 °FLight snow. Overcast.8 mph80%29.83 "HgN/A
8:20 pm28 °FLight snow. Overcast.8 mph80%29.80 "HgN/A
7:50 pm28 °FOvercast.8 mph86%29.80 "HgN/A
7:20 pm28 °FOvercast.10 mph80%29.77 "HgN/A
6:50 pm28 °FMostly cloudy.10 mph86%29.77 "HgN/A
6:20 pm28 °FLight snow. Mostly cloudy.13 mph86%29.74 "HgN/A
5:50 pm28 °FLight snow. Mostly cloudy.12 mph86%29.74 "HgN/A
5:20 pm28 °FLight snow. Mostly cloudy.12 mph93%29.71 "Hg6 mi
4:50 pm30 °FLight snow. Mostly cloudy.14 mph80%29.71 "HgN/A
4:20 pm30 °FOvercast.12 mph80%29.68 "HgN/A
3:50 pm30 °FMostly cloudy.14 mph86%29.68 "HgN/A
3:20 pm30 °FOvercast.14 mph86%29.65 "HgN/A
2:50 pm30 °FMostly cloudy.15 mph86%29.62 "HgN/A
2:20 pm30 °FCloudy.14 mph86%29.62 "HgN/A
1:50 pm30 °FMostly cloudy.13 mph86%29.59 "HgN/A
1:20 pm32 °FMostly cloudy.17 mph87%29.56 "HgN/A
12:50 pm32 °FMostly cloudy.18 mph87%29.56 "HgN/A
12:20 pm32 °FLight snow. Mostly cloudy.17 mph93%29.53 "HgN/A
Weather by CustomWeather, © 2016

See weather overviewHow to use our weather pages